Location: 81360 Arifat, France
(43.7204°N, 2.3408°E)
Time: 04:07:41
(UTC+01:00)

Courier 1B Rocket - Visible Passes

Search period start: 05 December 2025 00:00
Search period end: 15 December 2025 00:00
Orbit: 920 x 1201 km, 28.2° (Epoch: 04 December)

Date Brightness Start Highest point End Pass type
(mag) Time Alt. Az. Time Alt. Az. Time Alt. Az.
05 Dec 7.3 04:18:20 13° SE 04:18:20 13° SE 04:19:13 10° SE visible
05 Dec 6.8 06:04:41 13° SW 06:07:10 16° SSW 06:10:47 10° SSE visible
06 Dec 6.8 05:07:18 18° S 05:07:18 18° S 05:10:27 10° SSE visible
07 Dec 6.9 05:56:17 12° SSW 05:57:41 13° SSW 06:00:32 10° S visible
08 Dec 7.0 04:58:54 14° S 04:58:54 14° S 05:00:39 10° SSE visible
09 Dec 7.1 05:47:53 10° SSW 05:48:09 10° SSW 05:48:57 10° SSW visible
